contact: severine.martini@mio.osupytheas.fr, dominique.lefevre@mio.osupytheas.fr
Project:EMSO Ligure-ouest http://www.emso-fr.org/EMSO-France
Sensor Optode, line 4330 Serial 272 
DOI : "https://doi.org/10.17882/97948" 
Title:EMSO Ligure Ouest : Data BathyDock capteur Optode - deploiement "2023-04-28"
Datetime,Profondeur,Latitude,Longitude,optode_type,serial,O2_concentration,O2_saturation,Temperature,Calibrated_Phase,Temp_Compensated_Phase,phase_blue_light,phase_red_light,Amplitude_blue_light,Amplitude_red_light,thermistor_bridge
time,m,degree_north,degree_east,1,1,umol.l-1,%,degree_C,degree,degree,degree,degree,mV,mV,mV
2024-02-03T00:00:07,2420,42.8014,5.9826,4330,272,186.067,56.998,13.319,36.062,36.642,41.233,4.591,296.2,546.4,290.9
2024-02-03T00:03:07,2420,42.8014,5.9826,4330,272,185.978,56.972,13.319,36.067,36.647,41.239,4.592,296.2,546.4,290.9
2024-02-03T00:06:07,2420,42.8014,5.9826,4330,272,185.925,56.955,13.319,36.070,36.650,41.239,4.589,296.3,546.4,290.9
2024-02-03T00:09:07,2420,42.8014,5.9826,4330,272,186.146,57.018,13.315,36.058,36.638,41.226,4.588,296.3,546.4,291.1
2024-02-03T00:12:07,2420,42.8014,5.9826,4330,272,186.081,56.998,13.315,36.062,36.642,41.238,4.596,296.3,546.5,291.0
2024-02-03T00:15:08,2420,42.8014,5.9826,4330,272,186.278,57.057,13.314,36.050,36.630,41.219,4.589,296.2,546.5,291.1
2024-02-03T00:18:08,2420,42.8014,5.9826,4330,272,186.206,57.036,13.315,36.054,36.634,41.228,4.593,296.2,546.3,291.1
2024-02-03T00:21:08,2420,42.8014,5.9826,4330,272,186.001,56.974,13.316,36.067,36.646,41.240,4.594,296.2,546.4,291.0
2024-02-03T00:24:08,2420,42.8014,5.9826,4330,272,186.146,57.025,13.321,36.055,36.635,41.230,4.595,296.2,546.4,290.9
2024-02-03T00:27:08,2420,42.8014,5.9826,4330,272,186.218,57.044,13.318,36.052,36.632,41.217,4.585,296.2,546.4,291.0
2024-02-03T00:30:07,2420,42.8014,5.9826,4330,272,186.102,57.010,13.320,36.058,36.638,41.227,4.589,296.2,546.4,290.9
2024-02-03T00:33:07,2420,42.8014,5.9826,4330,272,186.319,57.078,13.321,36.044,36.624,41.213,4.590,296.2,546.4,290.9
2024-02-03T00:36:07,2420,42.8014,5.9826,4330,272,186.159,57.025,13.318,36.055,36.635,41.226,4.590,296.2,546.4,291.0
2024-02-03T00:39:08,2420,42.8014,5.9826,4330,272,186.115,57.016,13.321,36.057,36.637,41.224,4.587,296.2,546.4,290.9
2024-02-03T00:42:08,2420,42.8014,5.9826,4330,272,186.222,57.041,13.315,36.053,36.632,41.227,4.595,296.2,546.5,291.1
2024-02-03T00:45:08,2420,42.8014,5.9826,4330,272,186.464,57.115,13.315,36.037,36.617,41.215,4.598,296.2,546.4,291.1
2024-02-03T00:48:08,2420,42.8014,5.9826,4330,272,186.181,57.032,13.318,36.054,36.634,41.225,4.591,296.2,546.4,291.0
2024-02-03T00:51:07,2420,42.8014,5.9826,4330,272,185.953,56.958,13.314,36.071,36.650,41.239,4.588,296.2,546.3,291.1
2024-02-03T00:54:07,2420,42.8014,5.9826,4330,272,185.870,56.931,13.313,36.077,36.657,41.251,4.594,296.2,546.4,291.1
2024-02-03T00:57:07,2420,42.8014,5.9826,4330,272,186.065,56.995,13.317,36.062,36.642,41.232,4.590,296.1,546.4,291.0
2024-02-03T01:00:07,2420,42.8014,5.9826,4330,272,185.938,56.956,13.317,36.071,36.651,41.246,4.596,296.2,546.4,291.0
2024-02-03T01:03:07,2420,42.8014,5.9826,4330,272,186.112,57.010,13.317,36.059,36.639,41.230,4.591,296.2,546.4,291.0
2024-02-03T01:06:07,2420,42.8014,5.9826,4330,272,186.024,56.978,13.313,36.066,36.646,41.235,4.589,296.2,546.5,291.1
2024-02-03T01:09:07,2420,42.8014,5.9826,4330,272,185.757,56.897,13.314,36.084,36.664,41.257,4.594,296.2,546.5,291.1
2024-02-03T01:12:08,2420,42.8014,5.9826,4330,272,186.037,56.983,13.314,36.065,36.645,41.235,4.591,296.2,546.4,291.1
2024-02-03T01:15:08,2420,42.8014,5.9826,4330,272,185.965,56.959,13.313,36.071,36.651,41.238,4.587,296.2,546.4,291.1
2024-02-03T01:18:08,2420,42.8014,5.9826,4330,272,186.116,57.006,13.313,36.061,36.641,41.231,4.590,296.2,546.4,291.1
2024-02-03T01:21:07,2420,42.8014,5.9826,4330,272,185.823,56.916,13.313,36.080,36.660,41.251,4.591,296.2,546.5,291.1
2024-02-03T01:24:07,2420,42.8014,5.9826,4330,272,186.175,57.026,13.315,36.056,36.636,41.224,4.588,296.2,546.4,291.1
2024-02-03T01:27:07,2420,42.8014,5.9826,4330,272,186.452,57.106,13.311,36.041,36.621,41.211,4.591,296.1,546.4,291.2
2024-02-03T01:30:07,2420,42.8014,5.9826,4330,272,186.250,57.044,13.311,36.053,36.633,41.230,4.596,296.2,546.4,291.2
2024-02-03T01:33:07,2420,42.8014,5.9826,4330,272,186.205,57.028,13.309,36.057,36.637,41.226,4.589,296.2,546.4,291.3
2024-02-03T01:36:07,2420,42.8014,5.9826,4330,272,186.337,57.071,13.311,36.047,36.627,41.223,4.596,296.2,546.5,291.2
2024-02-03T01:39:08,2420,42.8014,5.9826,4330,272,186.091,56.996,13.311,36.063,36.643,41.232,4.589,296.1,546.5,291.2
2024-02-03T01:42:08,2420,42.8014,5.9826,4330,272,186.135,57.014,13.315,36.058,36.638,41.228,4.590,296.1,546.5,291.1
2024-02-03T01:45:08,2420,42.8014,5.9826,4330,272,186.158,57.016,13.311,36.059,36.639,41.228,4.589,296.2,546.5,291.2
2024-02-03T01:48:07,2420,42.8014,5.9826,4330,272,186.295,57.058,13.311,36.050,36.630,41.225,4.595,296.2,546.5,291.2
2024-02-03T01:51:07,2420,42.8014,5.9826,4330,272,186.072,56.987,13.309,36.065,36.645,41.231,4.586,296.2,546.4,291.3
2024-02-03T01:54:07,2420,42.8014,5.9826,4330,272,186.337,57.069,13.309,36.048,36.628,41.225,4.597,296.1,546.5,291.2
2024-02-03T01:57:08,2420,42.8014,5.9826,4330,272,186.291,57.056,13.310,36.050,36.630,41.223,4.593,296.2,546.5,291.2
2024-02-03T02:00:08,2420,42.8014,5.9826,4330,272,186.359,57.075,13.308,36.047,36.627,41.223,4.596,296.1,546.5,291.3
2024-02-03T02:03:07,2420,42.8014,5.9826,4330,272,186.059,56.995,13.318,36.062,36.642,41.231,4.589,296.2,546.4,291.0
2024-02-03T02:06:07,2420,42.8014,5.9826,4330,272,186.124,57.006,13.311,36.061,36.641,41.234,4.593,296.2,546.4,291.2
2024-02-03T02:09:07,2420,42.8014,5.9826,4330,272,186.160,57.020,13.313,36.058,36.638,41.226,4.588,296.1,546.4,291.1
2024-02-03T02:12:07,2420,42.8014,5.9826,4330,272,186.378,57.083,13.311,36.045,36.625,41.219,4.595,296.2,546.5,291.2
2024-02-03T02:15:08,2420,42.8014,5.9826,4330,272,186.159,57.023,13.316,36.056,36.636,41.223,4.587,296.2,546.5,291.0
2024-02-03T02:18:08,2420,42.8014,5.9826,4330,272,186.231,57.046,13.317,36.052,36.632,41.223,4.591,296.1,546.5,291.0
2024-02-03T02:21:08,2420,42.8014,5.9826,4330,272,186.123,57.018,13.321,36.057,36.637,41.230,4.593,296.2,546.5,290.9
2024-02-03T02:24:08,2420,42.8014,5.9826,4330,272,186.027,56.994,13.325,36.061,36.640,41.228,4.587,296.2,546.4,290.7
2024-02-03T02:27:08,2420,42.8014,5.9826,4330,272,186.122,57.017,13.320,36.057,36.637,41.230,4.594,296.1,546.5,290.9
2024-02-03T02:30:07,2420,42.8014,5.9826,4330,272,186.026,56.993,13.325,36.060,36.640,41.231,4.591,296.2,546.4,290.7
2024-02-03T02:33:07,2420,42.8014,5.9826,4330,272,186.040,57.007,13.332,36.056,36.636,41.228,4.592,296.2,546.5,290.5
2024-02-03T02:36:07,2420,42.8014,5.9826,4330,272,186.049,57.003,13.327,36.058,36.638,41.226,4.587,296.2,546.4,290.7
2024-02-03T02:39:07,2420,42.8014,5.9826,4330,272,186.069,57.020,13.335,36.053,36.633,41.220,4.587,296.1,546.3,290.4
2024-02-03T02:42:08,2420,42.8014,5.9826,4330,272,185.900,56.963,13.331,36.066,36.646,41.236,4.589,296.2,546.3,290.5
2024-02-03T02:45:08,2420,42.8014,5.9826,4330,272,185.924,56.965,13.327,36.067,36.646,41.238,4.592,296.3,546.4,290.7
2024-02-03T02:48:08,2420,42.8014,5.9826,4330,272,185.814,56.943,13.336,36.070,36.649,41.240,4.591,296.1,546.4,290.4
2024-02-03T02:51:08,2420,42.8014,5.9826,4330,272,185.991,57.000,13.339,36.057,36.636,41.232,4.595,296.2,546.3,290.3
2024-02-03T02:54:08,2420,42.8014,5.9826,4330,272,185.989,56.999,13.338,36.057,36.637,41.230,4.593,296.3,546.3,290.3
2024-02-03T02:57:07,2420,42.8014,5.9826,4330,272,185.528,56.857,13.338,36.087,36.667,41.259,4.592,296.3,546.3,290.3
2024-02-03T03:00:07,2420,42.8014,5.9826,4330,272,185.769,56.926,13.333,36.074,36.653,41.242,4.588,296.3,546.4,290.5
2024-02-03T03:03:07,2420,42.8014,5.9826,4330,272,185.789,56.939,13.339,36.070,36.649,41.242,4.593,296.4,546.4,290.3
2024-02-03T03:06:08,2420,42.8014,5.9826,4330,272,185.946,56.979,13.333,36.062,36.642,41.233,4.591,296.3,546.4,290.5
2024-02-03T03:09:08,2420,42.8014,5.9826,4330,272,185.705,56.911,13.338,36.076,36.656,41.249,4.593,296.3,546.4,290.3
2024-02-03T03:12:07,2420,42.8014,5.9826,4330,272,185.914,56.981,13.342,36.060,36.640,41.232,4.593,296.2,546.3,290.2
2024-02-03T03:15:07,2420,42.8014,5.9826,4330,272,185.846,56.959,13.341,36.064,36.644,41.234,4.590,296.3,546.3,290.2
2024-02-03T03:18:07,2420,42.8014,5.9826,4330,272,185.993,57.000,13.338,36.057,36.637,41.229,4.593,296.3,546.4,290.3
2024-02-03T03:21:07,2420,42.8014,5.9826,4330,272,185.513,56.848,13.334,36.090,36.670,41.262,4.592,296.2,546.4,290.4
2024-02-03T03:24:08,2420,42.8014,5.9826,4330,272,185.594,56.880,13.340,36.082,36.661,41.248,4.587,296.3,546.3,290.2
2024-02-03T03:27:08,2420,42.8014,5.9826,4330,272,185.816,56.948,13.340,36.067,36.647,41.236,4.589,296.3,546.4,290.2
2024-02-03T03:30:08,2420,42.8014,5.9826,4330,272,185.802,56.946,13.341,36.068,36.648,41.235,4.587,296.3,546.3,290.2
2024-02-03T03:33:07,2420,42.8014,5.9826,4330,272,185.817,56.949,13.340,36.067,36.647,41.243,4.596,296.3,546.3,290.2
2024-02-03T03:36:07,2420,42.8014,5.9826,4330,272,185.901,56.976,13.341,36.061,36.641,41.237,4.596,296.4,546.4,290.2
2024-02-03T03:39:07,2420,42.8014,5.9826,4330,272,185.800,56.938,13.336,36.071,36.650,41.241,4.590,296.3,546.3,290.4
2024-02-03T03:42:07,2420,42.8014,5.9826,4330,272,185.764,56.933,13.340,36.071,36.650,41.238,4.588,296.3,546.3,290.2
2024-02-03T03:45:08,2420,42.8014,5.9826,4330,272,185.813,56.952,13.344,36.066,36.645,41.236,4.591,296.3,546.3,290.1
2024-02-03T03:48:08,2420,42.8014,5.9826,4330,272,185.654,56.898,13.339,36.078,36.658,41.245,4.588,296.4,546.4,290.3
2024-02-03T03:51:08,2420,42.8014,5.9826,4330,272,185.457,56.837,13.339,36.092,36.671,41.266,4.595,296.3,546.3,290.3
2024-02-03T03:54:07,2420,42.8014,5.9826,4330,272,185.420,56.820,13.335,36.096,36.675,41.265,4.590,296.4,546.3,290.4
2024-02-03T03:57:07,2420,42.8014,5.9826,4330,272,185.839,56.949,13.335,36.068,36.648,41.241,4.593,296.3,546.3,290.4
2024-02-03T04:00:07,2420,42.8014,5.9826,4330,272,185.898,56.982,13.346,36.058,36.638,41.233,4.595,296.3,546.4,290.0
2024-02-03T04:03:07,2420,42.8014,5.9826,4330,272,185.911,56.969,13.333,36.064,36.644,41.231,4.588,296.4,546.3,290.5
2024-02-03T04:06:07,2420,42.8014,5.9826,4330,272,185.567,56.874,13.342,36.083,36.662,41.253,4.591,296.4,546.4,290.2
2024-02-03T04:09:08,2420,42.8014,5.9826,4330,272,185.653,56.896,13.338,36.079,36.659,41.246,4.588,296.3,546.3,290.3
2024-02-03T04:12:08,2420,42.8014,5.9826,4330,272,185.644,56.883,13.330,36.083,36.663,41.255,4.593,296.4,546.3,290.6
2024-02-03T04:15:08,2420,42.8014,5.9826,4330,272,185.702,56.896,13.326,36.081,36.661,41.253,4.592,296.3,546.4,290.7
2024-02-03T04:18:08,2420,42.8014,5.9826,4330,272,185.707,56.902,13.330,36.080,36.659,41.250,4.590,296.4,546.4,290.6
2024-02-03T04:21:07,2420,42.8014,5.9826,4330,272,185.705,56.894,13.324,36.082,36.662,41.251,4.589,296.3,546.4,290.8
2024-02-03T04:24:07,2420,42.8014,5.9826,4330,272,185.940,56.963,13.321,36.068,36.648,41.242,4.594,296.2,546.4,290.9
2024-02-03T04:27:07,2420,42.8014,5.9826,4330,272,185.776,56.916,13.324,36.078,36.658,41.250,4.593,296.3,546.4,290.8
2024-02-03T04:30:08,2420,42.8014,5.9826,4330,272,185.913,56.970,13.334,36.064,36.644,41.235,4.591,296.3,546.4,290.4
2024-02-03T04:33:07,2420,42.8014,5.9826,4330,272,185.824,56.932,13.325,36.074,36.654,41.244,4.590,296.3,546.4,290.7
2024-02-03T04:36:07,2420,42.8014,5.9826,4330,272,185.867,56.945,13.325,36.071,36.651,41.243,4.593,296.3,546.4,290.7
2024-02-03T04:39:08,2420,42.8014,5.9826,4330,272,185.921,56.961,13.325,36.068,36.648,41.244,4.596,296.2,546.4,290.7
2024-02-03T04:42:08,2420,42.8014,5.9826,4330,272,185.810,56.936,13.332,36.072,36.652,41.245,4.594,296.3,546.4,290.5
2024-02-03T04:45:08,2420,42.8014,5.9826,4330,272,185.763,56.916,13.328,36.077,36.657,41.248,4.591,296.3,546.4,290.6
2024-02-03T04:48:07,2420,42.8014,5.9826,4330,272,185.771,56.916,13.325,36.078,36.658,41.253,4.595,296.3,546.4,290.7
2024-02-03T04:51:07,2420,42.8014,5.9826,4330,272,185.805,56.926,13.325,36.075,36.655,41.246,4.591,296.4,546.4,290.7
2024-02-03T04:54:07,2420,42.8014,5.9826,4330,272,185.742,56.918,13.334,36.075,36.655,41.244,4.590,296.3,546.4,290.4
2024-02-03T04:57:07,2420,42.8014,5.9826,4330,272,185.817,56.938,13.332,36.072,36.651,41.244,4.592,296.3,546.3,290.5
2024-02-03T05:00:08,2420,42.8014,5.9826,4330,272,185.844,56.950,13.335,36.068,36.648,41.237,4.589,296.3,546.4,290.4
2024-02-03T05:03:07,2420,42.8014,5.9826,4330,272,185.891,56.956,13.328,36.068,36.648,41.239,4.591,296.3,546.4,290.6
2024-02-03T05:06:07,2420,42.8014,5.9826,4330,272,185.665,56.890,13.330,36.082,36.662,41.249,4.588,296.3,546.4,290.6
2024-02-03T05:09:08,2420,42.8014,5.9826,4330,272,185.657,56.895,13.337,36.080,36.659,41.248,4.589,296.3,546.3,290.4
2024-02-03T05:12:08,2420,42.8014,5.9826,4330,272,186.077,57.004,13.321,36.059,36.639,41.230,4.591,296.3,546.4,290.9
2024-02-03T05:15:08,2420,42.8014,5.9826,4330,272,185.823,56.924,13.319,36.077,36.657,41.249,4.591,296.3,546.5,290.9
2024-02-03T05:18:08,2420,42.8014,5.9826,4330,272,185.988,56.978,13.322,36.064,36.644,41.234,4.589,296.3,546.5,290.8
2024-02-03T05:21:08,2420,42.8014,5.9826,4330,272,186.041,57.000,13.326,36.059,36.639,41.235,4.596,296.3,546.4,290.7
2024-02-03T05:24:07,2420,42.8014,5.9826,4330,272,186.054,57.003,13.326,36.059,36.638,41.233,4.595,296.3,546.4,290.7
2024-02-03T05:27:07,2420,42.8014,5.9826,4330,272,185.910,56.954,13.322,36.070,36.650,41.243,4.593,296.4,546.4,290.8
2024-02-03T05:30:08,2420,42.8014,5.9826,4330,272,185.993,56.980,13.322,36.065,36.644,41.239,4.595,296.3,546.4,290.8
2024-02-03T05:33:07,2420,42.8014,5.9826,4330,272,185.613,56.871,13.328,36.086,36.666,41.251,4.586,296.3,546.4,290.6
2024-02-03T05:36:07,2420,42.8014,5.9826,4330,272,185.682,56.901,13.335,36.078,36.658,41.251,4.593,296.3,546.4,290.4
2024-02-03T05:39:07,2420,42.8014,5.9826,4330,272,185.889,56.964,13.335,36.065,36.645,41.240,4.595,296.2,546.3,290.4
2024-02-03T05:42:08,2420,42.8014,5.9826,4330,272,185.686,56.892,13.327,36.082,36.662,41.248,4.587,296.4,546.4,290.7
2024-02-03T05:45:08,2420,42.8014,5.9826,4330,272,185.684,56.897,13.332,36.080,36.660,41.243,4.583,296.3,546.4,290.5
2024-02-03T05:48:08,2420,42.8014,5.9826,4330,272,185.891,56.959,13.330,36.067,36.647,41.235,4.588,296.3,546.4,290.6
2024-02-03T05:51:07,2420,42.8014,5.9826,4330,272,185.716,56.906,13.331,36.078,36.658,41.243,4.585,296.4,546.4,290.6
2024-02-03T05:54:07,2420,42.8014,5.9826,4330,272,185.618,56.870,13.326,36.087,36.666,41.256,4.590,296.4,546.4,290.7
2024-02-03T05:57:07,2420,42.8014,5.9826,4330,272,185.702,56.897,13.327,36.081,36.661,41.253,4.592,296.4,546.4,290.7
2024-02-03T06:00:08,2420,42.8014,5.9826,4330,272,185.930,56.967,13.327,36.066,36.646,41.238,4.593,296.3,546.4,290.7
2024-02-03T06:03:07,2420,42.8014,5.9826,4330,272,185.643,56.873,13.323,36.087,36.667,41.255,4.588,296.3,546.4,290.8
2024-02-03T06:06:08,2420,42.8014,5.9826,4330,272,186.005,56.981,13.320,36.065,36.644,41.234,4.590,296.3,546.3,290.9
2024-02-03T06:09:08,2420,42.8014,5.9826,4330,272,185.937,56.959,13.319,36.069,36.649,41.242,4.593,296.2,546.3,290.9
2024-02-03T06:12:08,2420,42.8014,5.9826,4330,272,185.971,56.976,13.325,36.065,36.645,41.235,4.590,296.2,546.5,290.7
2024-02-03T06:15:07,2420,42.8014,5.9826,4330,272,185.758,56.918,13.330,36.076,36.656,41.249,4.593,296.2,546.4,290.6
2024-02-03T06:18:07,2420,42.8014,5.9826,4330,272,185.779,56.920,13.327,36.076,36.656,41.248,4.592,296.3,546.3,290.7
2024-02-03T06:21:07,2420,42.8014,5.9826,4330,272,185.748,56.906,13.323,36.080,36.659,41.248,4.589,296.3,546.3,290.8
2024-02-03T06:24:07,2420,42.8014,5.9826,4330,272,185.780,56.910,13.319,36.080,36.660,41.247,4.587,296.3,546.4,290.9
2024-02-03T06:27:07,2420,42.8014,5.9826,4330,272,186.105,57.009,13.318,36.059,36.639,41.227,4.588,296.3,546.4,290.9
2024-02-03T06:30:07,2420,42.8014,5.9826,4330,272,185.883,56.940,13.317,36.074,36.653,41.245,4.592,296.3,546.4,291.0
2024-02-03T06:33:07,2420,42.8014,5.9826,4330,272,185.956,56.969,13.322,36.067,36.647,41.240,4.593,296.3,546.4,290.8
2024-02-03T06:36:07,2420,42.8014,5.9826,4330,272,185.865,56.942,13.323,36.072,36.652,41.246,4.594,296.3,546.5,290.8
2024-02-03T06:39:07,2420,42.8014,5.9826,4330,272,185.780,56.911,13.319,36.080,36.659,41.250,4.590,296.3,546.4,290.9
2024-02-03T06:42:07,2420,42.8014,5.9826,4330,272,186.062,56.997,13.319,36.061,36.641,41.236,4.595,296.2,546.4,290.9
2024-02-03T06:45:08,2420,42.8014,5.9826,4330,272,186.153,57.021,13.316,36.057,36.637,41.227,4.590,296.2,546.5,291.0
2024-02-03T06:48:08,2420,42.8014,5.9826,4330,272,185.984,56.970,13.316,36.068,36.648,41.239,4.591,296.2,546.5,291.0
2024-02-03T06:51:08,2420,42.8014,5.9826,4330,272,186.095,57.007,13.319,36.060,36.639,41.232,4.593,296.3,546.4,290.9
2024-02-03T06:54:07,2420,42.8014,5.9826,4330,272,186.341,57.086,13.322,36.042,36.622,41.217,4.595,296.2,546.4,290.8
2024-02-03T06:57:07,2420,42.8014,5.9826,4330,272,186.090,57.014,13.326,36.056,36.636,41.228,4.592,296.2,546.5,290.7
2024-02-03T07:00:07,2420,42.8014,5.9826,4330,272,186.230,57.052,13.321,36.049,36.629,41.220,4.591,296.2,546.4,290.9
2024-02-03T07:03:07,2420,42.8014,5.9826,4330,272,185.863,56.939,13.322,36.073,36.653,41.241,4.588,296.3,546.5,290.8
2024-02-03T07:06:07,2420,42.8014,5.9826,4330,272,186.038,56.990,13.319,36.063,36.643,41.235,4.592,296.2,546.4,290.9
2024-02-03T07:09:07,2420,42.8014,5.9826,4330,272,186.057,57.009,13.329,36.057,36.637,41.231,4.594,296.2,546.3,290.6
2024-02-03T07:12:07,2420,42.8014,5.9826,4330,272,186.094,57.013,13.324,36.057,36.637,41.224,4.587,296.2,546.4,290.8
2024-02-03T07:15:08,2420,42.8014,5.9826,4330,272,185.760,56.904,13.319,36.081,36.661,41.253,4.592,296.3,546.4,290.9
2024-02-03T07:18:07,2420,42.8014,5.9826,4330,272,186.128,57.015,13.317,36.058,36.638,41.228,4.591,296.2,546.4,291.0
2024-02-03T07:21:07,2420,42.8014,5.9826,4330,272,186.010,56.980,13.318,36.065,36.645,41.238,4.593,296.2,546.5,291.0
2024-02-03T07:24:07,2420,42.8014,5.9826,4330,272,186.234,57.049,13.318,36.050,36.630,41.227,4.597,296.3,546.5,291.0
2024-02-03T07:27:08,2420,42.8014,5.9826,4330,272,186.143,57.019,13.317,36.057,36.637,41.223,4.586,296.2,546.5,291.0
2024-02-03T07:30:08,2420,42.8014,5.9826,4330,272,185.838,56.921,13.313,36.079,36.658,41.249,4.591,296.2,546.5,291.1
2024-02-03T07:33:07,2420,42.8014,5.9826,4330,272,185.983,56.966,13.313,36.069,36.649,41.239,4.590,296.3,546.5,291.1
2024-02-03T07:36:08,2420,42.8014,5.9826,4330,272,186.246,57.051,13.317,36.051,36.631,41.227,4.596,296.2,546.5,291.0
2024-02-03T07:39:08,2420,42.8014,5.9826,4330,272,186.058,56.997,13.320,36.061,36.641,41.230,4.589,296.2,546.5,290.9
2024-02-03T07:42:08,2420,42.8014,5.9826,4330,272,186.010,56.983,13.320,36.064,36.644,41.234,4.590,296.3,546.5,290.9
2024-02-03T07:45:08,2420,42.8014,5.9826,4330,272,185.876,56.940,13.319,36.074,36.653,41.247,4.593,296.3,546.3,290.9
2024-02-03T07:48:07,2420,42.8014,5.9826,4330,272,185.814,56.917,13.316,36.079,36.659,41.246,4.587,296.2,546.5,291.0
2024-02-03T07:51:07,2420,42.8014,5.9826,4330,272,185.778,56.913,13.321,36.079,36.658,41.244,4.586,296.2,546.5,290.9
2024-02-03T07:54:07,2420,42.8014,5.9826,4330,272,186.232,57.054,13.323,36.048,36.628,41.218,4.590,296.2,546.5,290.8
2024-02-03T07:57:07,2420,42.8014,5.9826,4330,272,186.125,57.011,13.314,36.059,36.639,41.234,4.594,296.2,546.4,291.1
2024-02-03T08:00:08,2420,42.8014,5.9826,4330,272,186.140,57.025,13.322,36.055,36.635,41.227,4.592,296.2,546.5,290.8
2024-02-03T08:03:07,2420,42.8014,5.9826,4330,272,185.884,56.945,13.321,36.072,36.652,41.241,4.589,296.2,546.4,290.9
2024-02-03T08:06:07,2420,42.8014,5.9826,4330,272,185.973,56.976,13.324,36.065,36.645,41.239,4.595,296.2,546.4,290.8
2024-02-03T08:09:07,2420,42.8014,5.9826,4330,272,185.938,56.961,13.321,36.068,36.648,41.241,4.593,296.2,546.4,290.9
2024-02-03T08:12:07,2420,42.8014,5.9826,4330,272,186.055,56.996,13.320,36.062,36.641,41.236,4.595,296.2,546.4,290.9
2024-02-03T08:15:07,2420,42.8014,5.9826,4330,272,186.106,57.010,13.319,36.058,36.638,41.236,4.597,296.2,546.5,290.9
2024-02-03T08:18:07,2420,42.8014,5.9826,4330,272,186.053,56.992,13.317,36.063,36.643,41.232,4.589,296.3,546.5,291.0
2024-02-03T08:21:07,2420,42.8014,5.9826,4330,272,185.933,56.959,13.320,36.069,36.649,41.237,4.588,296.2,546.4,290.9
2024-02-03T08:24:07,2420,42.8014,5.9826,4330,272,185.977,56.972,13.320,36.067,36.647,41.244,4.598,296.2,546.4,290.9
2024-02-03T08:27:08,2420,42.8014,5.9826,4330,272,185.905,56.947,13.318,36.072,36.652,41.238,4.586,296.2,546.4,291.0
2024-02-03T08:30:07,2420,42.8014,5.9826,4330,272,186.139,57.025,13.322,36.055,36.635,41.224,4.590,296.2,546.4,290.8
2024-02-03T08:33:07,2420,42.8014,5.9826,4330,272,186.073,56.997,13.316,36.062,36.642,41.234,4.593,296.2,546.4,291.0
2024-02-03T08:36:07,2420,42.8014,5.9826,4330,272,185.892,56.948,13.321,36.072,36.651,41.240,4.589,296.2,546.4,290.9
2024-02-03T08:39:07,2420,42.8014,5.9826,4330,272,186.041,56.992,13.320,36.063,36.642,41.237,4.595,296.2,546.4,290.9
2024-02-03T08:42:07,2420,42.8014,5.9826,4330,272,186.190,57.038,13.320,36.053,36.633,41.227,4.594,296.2,546.4,290.9
2024-02-03T08:45:07,2420,42.8014,5.9826,4330,272,185.965,56.960,13.313,36.071,36.651,41.245,4.595,296.2,546.4,291.1
2024-02-03T08:48:08,2420,42.8014,5.9826,4330,272,186.245,57.053,13.319,36.050,36.630,41.224,4.594,296.1,546.4,290.9
2024-02-03T08:51:08,2420,42.8014,5.9826,4330,272,185.969,56.964,13.316,36.069,36.649,41.238,4.589,296.2,546.4,291.0
2024-02-03T08:54:08,2420,42.8014,5.9826,4330,272,186.180,57.035,13.320,36.054,36.633,41.221,4.587,296.2,546.4,290.9
2024-02-03T08:57:07,2420,42.8014,5.9826,4330,272,185.726,56.898,13.322,36.081,36.661,41.243,4.582,296.2,546.4,290.8
2024-02-03T09:00:08,2420,42.8014,5.9826,4330,272,185.908,56.950,13.319,36.071,36.651,41.236,4.584,296.3,546.5,290.9
2024-02-03T09:03:07,2420,42.8014,5.9826,4330,272,186.164,57.029,13.319,36.054,36.634,41.224,4.590,296.2,546.4,290.9
2024-02-03T09:06:07,2420,42.8014,5.9826,4330,272,186.020,56.979,13.315,36.065,36.645,41.240,4.595,296.3,546.4,291.1
2024-02-03T09:09:07,2420,42.8014,5.9826,4330,272,186.052,56.994,13.319,36.062,36.642,41.235,4.593,296.2,546.4,290.9
2024-02-03T09:12:07,2420,42.8014,5.9826,4330,272,186.064,57.005,13.325,36.058,36.638,41.236,4.597,296.2,546.4,290.7
2024-02-03T09:15:07,2420,42.8014,5.9826,4330,272,185.920,56.959,13.323,36.068,36.648,41.236,4.588,296.2,546.4,290.8
2024-02-03T09:18:08,2420,42.8014,5.9826,4330,272,186.156,57.026,13.319,36.055,36.635,41.227,4.592,296.3,546.4,290.9
2024-02-03T09:21:08,2420,42.8014,5.9826,4330,272,185.952,56.963,13.319,36.068,36.648,41.237,4.589,296.3,546.4,290.9
2024-02-03T09:24:08,2420,42.8014,5.9826,4330,272,186.017,56.984,13.320,36.064,36.644,41.234,4.590,296.3,546.4,290.9
2024-02-03T09:27:08,2420,42.8014,5.9826,4330,272,185.935,56.961,13.321,36.068,36.648,41.236,4.588,296.3,546.5,290.8
2024-02-03T09:30:07,2420,42.8014,5.9826,4330,272,185.985,56.975,13.321,36.066,36.645,41.232,4.587,296.2,546.5,290.9
2024-02-03T09:33:07,2420,42.8014,5.9826,4330,272,186.127,57.020,13.322,36.056,36.636,41.229,4.593,296.2,546.5,290.8
2024-02-03T09:36:07,2420,42.8014,5.9826,4330,272,186.141,57.021,13.319,36.056,36.636,41.225,4.589,296.2,546.4,290.9
2024-02-03T09:39:08,2420,42.8014,5.9826,4330,272,186.079,57.001,13.318,36.061,36.641,41.232,4.591,296.2,546.4,291.0
2024-02-03T09:42:08,2420,42.8014,5.9826,4330,272,186.009,56.984,13.321,36.063,36.643,41.235,4.592,296.2,546.5,290.9
2024-02-03T09:45:08,2420,42.8014,5.9826,4330,272,186.106,57.014,13.321,36.057,36.637,41.230,4.593,296.2,546.4,290.9
2024-02-03T09:48:08,2420,42.8014,5.9826,4330,272,186.152,57.023,13.318,36.057,36.636,41.235,4.599,296.3,546.5,291.0
2024-02-03T09:51:07,2420,42.8014,5.9826,4330,272,186.175,57.034,13.321,36.053,36.632,41.231,4.599,296.2,546.6,290.9
2024-02-03T09:54:07,2420,42.8014,5.9826,4330,272,185.944,56.962,13.320,36.068,36.648,41.237,4.589,296.3,546.5,290.9
2024-02-03T09:57:07,2420,42.8014,5.9826,4330,272,186.152,57.024,13.319,36.056,36.636,41.229,4.593,296.1,546.5,290.9
2024-02-03T10:00:08,2420,42.8014,5.9826,4330,272,186.192,57.032,13.315,36.055,36.634,41.224,4.589,296.2,546.5,291.1